Weather History for La Ceiba, Honduras

Change the Weather History Date:

Wednesday, November 20, 2013

  Actual Average Record
Temperature  
Mean Temperature 78 °F -  
Max Temperature 85 °F 79 °F 85 °F (2013)
Min Temperature 70 °F 67 °F 59 °F (1999)
Cooling Degree Days 12    
Growing Degree Days 28 (Base 50)    
Moisture  
Dew Point 74 °F    
Average Humidity 87    
Maximum Humidity 100    
Minimum Humidity 74    
Precipitation  
Precipitation 0.12 in 0.65 in - ()
Sea Level Pressure  
Sea Level Pressure 29.90 in    
Wind  
Wind Speed 2 mph ()    
Max Wind Speed 6 mph    
Max Gust Speed -    
Visibility 6.9 miles    
Events Rain    
Averages and records for this station are not official NWS values.
T = Trace of Precipitation, MM = Missing Value Source: Averaged Metar Reports

Daily Weather History Graph

Daily Weather History Graph

Search for Another Location

Airport:

Trip Planner

Search our weather history database for the weather conditions in past years. The results will help you decide how hot, cold, wet, or windy it might be!

Date:

Astronomy

Nov. 20, 2013 Rise Set
Actual Time 5:52 AM CST 5:13 PM CST
Civil Twilight 5:29 AM CST 5:36 PM CST
Nautical Twilight 5:03 AM CST 6:02 PM CST
Astronomical Twilight 4:37 AM CST 6:28 PM CST
Moon 7:55 PM CST (11/20) 8:16 AM CST (11/20)
Length of Visible Light 12h 06m
Length of Day
11h 20m
Waning Gibbous, 91% of the Moon is Illuminated
Nov 20
Waning Gibbous
Nov 25
Last Quarter
Dec 2
New
Dec 9
First Quarter
Dec 17
Full

Hourly Weather History & Observations

Time (CST) Temp. Heat Index Dew Point Humidity Pressure Visibility Wind Dir Wind Speed Gust Speed Precip Events Conditions
12:00 AM 72 °F - 71 °F 96% 29.88 in 6 mi Calm Calm - -   Haze
12:00 AM 71.6 °F - 71.6 °F 100% 29.86 in 6.2 mi Calm Calm - N/A   Partly Cloudy
6:00 AM 71 °F - 70 °F 96% 29.90 in 12 mi Calm Calm - -   Haze
6:00 AM 71.6 °F - 69.8 °F 94% 29.89 in 6.2 mi Calm Calm - N/A   Mostly Cloudy
7:00 AM 73.4 °F - 71.6 °F 94% 29.92 in 6.2 mi NNE 3.5 mph - N/A Rain Rain
8:00 AM 77.0 °F - 71.6 °F 83% 29.92 in 6.2 mi SW 4.6 mph - N/A   Scattered Clouds
9:00 AM 82 °F - 75 °F 74% 29.95 in 12 mi South 3.5 mph - -   Haze
9:00 AM 82.4 °F 89.5 °F 75.2 °F 79% 29.95 in 6.2 mi South 3.5 mph - N/A   Partly Cloudy
10:00 AM 82.4 °F 89.5 °F 75.2 °F 79% 29.95 in 6.2 mi WNW 4.6 mph - N/A   Scattered Clouds
11:00 AM 82.4 °F 89.5 °F 75.2 °F 79% 29.92 in 6.2 mi NW 3.5 mph - N/A   Scattered Clouds
12:00 PM 82 °F - 76 °F 78% 29.91 in 12 mi NNW 4.6 mph - -   Haze
12:00 PM 82.4 °F 90.9 °F 77.0 °F 84% 29.89 in 6.2 mi NNW 4.6 mph - N/A   Scattered Clouds
1:00 PM 84.2 °F 94.1 °F 77.0 °F 79% 29.89 in 6.2 mi NW 4.6 mph - N/A   Scattered Clouds
2:00 PM 84.2 °F 94.1 °F 77.0 °F 79% 29.86 in 6.2 mi North 5.8 mph - N/A   Scattered Clouds
3:00 PM 84.2 °F 94.1 °F 77.0 °F 79% 29.86 in 6.2 mi NNE 5.8 mph - N/A   Scattered Clouds
4:00 PM 82.4 °F 90.9 °F 77.0 °F 84% 29.86 in 6.2 mi North 4.6 mph - N/A   Scattered Clouds
5:00 PM 80.6 °F 86.2 °F 75.2 °F 84% 29.86 in 6.2 mi South 2.3 mph - N/A   Scattered Clouds
6:00 PM 78 °F - 76 °F 91% 29.88 in 6 mi ESE 2.3 mph - -   Haze
6:00 PM 78.8 °F - 75.2 °F 89% 29.86 in 6.2 mi ESE 2.3 mph - N/A   Scattered Clouds
7:00 PM 75.2 °F - 73.4 °F 94% 29.89 in 6.2 mi Calm Calm - N/A   Scattered Clouds
8:00 PM 75.2 °F - 73.4 °F 94% 29.92 in 6.2 mi Calm Calm - N/A   Scattered Clouds
9:00 PM 74 °F - 72 °F 93% 29.93 in 6 mi SE 2.3 mph - -   Scattered Clouds
9:00 PM 75.2 °F - 71.6 °F 89% 29.92 in 6.2 mi SE 2.3 mph - N/A   Scattered Clouds
10:00 PM 75.2 °F - 73.4 °F 94% 29.92 in 6.2 mi South 3.5 mph - N/A   Mostly Cloudy
11:00 PM 73.4 °F - 71.6 °F 94% 29.92 in 6.2 mi ENE 2.3 mph - N/A   Scattered Clouds